Hourly Data Report for February 10, 2005

TORONTO CITY
ONTARIO

43°40'00.000" N
79°24'00.000" W
112.50 m
6158355
71508
XTO

Download Data

Hourly Data (February 2005)
Hourly Data Report for February 10, 2005
TIME
LST
Temp Definition
°C
Dew Point Definition
°C
Rel Hum Definition
%
Precip. Amount Definition
mm

Wind Dir Definition
10's deg

Wind Spd Definition
km/h
Visibility Definition
km
Stn Press Definition
kPa
Hmdx Definition


Wind Chill Definition


Weather Definition


00:00 -3.6 -5.9 84   LegendMM LegendMM   99.65     LegendNANA
01:00 -4.1 -6.5 83   LegendMM LegendMM   99.64     LegendNANA
02:00 -4.8 -7.2 83   LegendMM LegendMM   99.61     LegendNANA
03:00 -5.2 -7.5 84   LegendMM LegendMM   99.63     LegendNANA
04:00 -5.6 -7.6 86   LegendMM LegendMM   99.60     LegendNANA
05:00 -6.2 -7.8 88   LegendMM LegendMM   99.59     LegendNANA
06:00 -6.5 -8.1 88   LegendMM LegendMM   99.62     LegendNANA
07:00 -6.6 -8.3 88   LegendMM LegendMM   99.65     LegendNANA
08:00 -6.7 -8.4 88   LegendMM LegendMM   99.69     LegendNANA
09:00 -6.0 -7.7 88   LegendMM LegendMM   99.71     LegendNANA
10:00 -5.5 -8.3 81   LegendMM LegendMM   99.71     LegendNANA
11:00 -5.0 -9.0 73   LegendMM LegendMM   99.72     LegendNANA
12:00 -4.4 -8.1 75   LegendMM LegendMM   99.69     LegendNANA
13:00 -3.9 -8.8 69   LegendMM LegendMM   99.67     LegendNANA
14:00 -3.1 -9.7 60   LegendMM LegendMM   99.63     LegendNANA
15:00 -2.9 -9.5 60   LegendMM LegendMM   99.64     LegendNANA
16:00 -2.8 -10.2 57   LegendMM LegendMM   99.70     LegendNANA
17:00 -3.3 -10.1 59   LegendMM LegendMM   99.79     LegendNANA
18:00 -3.7 -10.2 61   LegendMM LegendMM   99.84     LegendNANA
19:00 -3.4 -11.0 56   LegendMM LegendMM   99.92     LegendNANA
20:00 -3.2 -13.4 45   LegendMM LegendMM   99.97     LegendNANA
21:00 -3.1 -13.4 45   LegendMM LegendMM   99.97     LegendNANA
22:00 -3.3 -11.9 51   LegendMM LegendMM   100.00     LegendNANA
23:00 -3.4 -11.8 52   LegendMM LegendMM   99.99     LegendNANA

Notes on Data Quality.

Legend

  • E = Estimated
  • M = Missing
  • NA = Not Available*
  • [empty] = Indicates an unobserved value
Date modified: